Content
SEND FEEDBACK

Daily
Averages
Monthly
Summary
Italy

FALCONARA MARITTIMA, ITALY


Home > Europe > Italy
Elevation: 33 feet     Latitude: 43 37N     Longitude: 013 22E

WEATHER
 
SELECT A DAY
Number of Records: 168,838;   Date Range: 7/1/96 - 12/27/14
 
SHARE

PRINT THIS DATA

[ ← Previous Day ]
WEATHER ALMANAC - FEBRUARY 13, 2013
[ Next Day → ]
[ °C ]   °F
Weather ElementAverageHighLow
Temperature39.4 °F42.8 °F (10:50 pm)37.4 °F (1:50 am)
Dewpoint36.6 °F39.2 °F (2:50 pm)33.8 °F (6:50 am)
Humidity89.8 %100 % (1:50 am)87 % (2:50 am)
Barometer29.80 in29.89 in (10:50 pm)29.77 in (1:50 am)
Wind Speed12.7 mph19.6 mph (6:50 pm)
Weather ElementAverage
Visibility4 mi
Wind DirectionNW (310.8 °)

Weather ElementTotal
Precipitation---
Heating Degree Days24.9 (Base 65)
Averaged from 24 records on February 13, 2013
WEATHER CONDITIONS BREAKOUT
WIND DIRECTION BREAKOUT
WEATHER BY HOUR - FEBRUARY 13, 2013
[ °C ]   °F
Local TimeTemperatureDewpointHumidityBarometerVisibilityWind DirectionWind SpeedGust SpeedPrecipitationEventsConditions
1:50 AM37.4 °F37.4 °F100 %29.77 in6.2 miWNW (290°)6.9 mphScattered Clouds
2:50 AM39.2 °F35.6 °F87 %29.77 in6.2 miNW (310°)9.2 mphScattered Clouds
3:50 AM37.4 °F35.6 °F93 %29.77 in6.2 miWest (280°)6.9 mphScattered Clouds
4:50 AM39.2 °F35.6 °F87 %29.77 in6.2 miWNW (300°)9.2 mphMostly Cloudy
5:50 AM37.4 °F35.6 °F93 %29.77 in6.2 miWNW (290°)9.2 mphMostly Cloudy
6:50 AM37.4 °F33.8 °F87 %29.77 in6.2 miWest (280°)11.5 mphOvercast
7:00 AM37.4 °F33.8 °F87 %29.77 in2.5 miWest (280°)11.5 mphOvercast
7:50 AM37.4 °F33.8 °F87 %29.80 in2.2 miWest (280°)10.4 mphMostly Cloudy
8:50 AM37.4 °F33.8 °F87 %29.80 in3.1 miWNW (290°)12.7 mphMostly Cloudy
9:50 AM37.4 °F33.8 °F87 %29.80 in2.5 miWNW (290°)12.7 mphMostly Cloudy
10:50 AM39.2 °F35.6 °F87 %29.80 in3.1 miWNW (300°)12.7 mphMostly Cloudy
11:50 AM39.2 °F35.6 °F87 %29.80 in2.5 miWNW (300°)12.7 mphMostly Cloudy
12:50 PM39.2 °F35.6 °F87 %29.77 in2.2 miWNW (300°)13.8 mphRainLight Rain
1:50 PM39.2 °F37.4 °F93 %29.77 in2.2 miWNW (300°)16.1 mphRainLight Rain
2:50 PM41.0 °F39.2 °F93 %29.77 in2.2 miNorth (350°)17.3 mphRainRain
3:50 PM41.0 °F39.2 °F93 %29.77 in2.5 miNorth (350°)13.8 mphRainRain
4:50 PM41.0 °F37.4 °F87 %29.80 in3.1 miNNW (340°)16.1 mphRainLight Rain
5:50 PM41.0 °F37.4 °F87 %29.80 in3.1 miNNW (340°)17.3 mphRainRain
6:50 PM41.0 °F37.4 °F87 %29.80 in3.7 miNNW (340°)19.6 mphRainRain
7:50 PM41.0 °F39.2 °F93 %29.83 in5.0 miNNW (340°)15.0 mphRainRain
8:50 PM41.0 °F39.2 °F93 %29.83 in5.0 miNorth (350°)12.7 mphRainRain
9:50 PM41.0 °F39.2 °F93 %29.86 in5.0 miNorth (350°)12.7 mphRainRain
10:50 PM42.8 °F39.2 °F87 %29.89 in5.0 miNNW (330°)13.8 mphRainLight Rain
11:50 PM39.2 °F37.4 °F93 %29.89 in5.0 miWest (280°)11.5 mphRainRain
Hourly data recorded from LIPY, located miles away from Falconara Marittima, Italy







STORIES FROM OUR PARTNERS